TimeCST,TemperatureF,Dew PointF,Humidity,Sea Level PressureIn,VisibilityMPH,Wind Direction,Wind SpeedMPH,Gust SpeedMPH,PrecipitationIn,Events,Conditions,WindDirDegrees,DateUTC
12:53 AM,19.0,15.1,85,30.35,10.0,West,8.1,-,N/A,,Overcast,270,2013-01-03 06:53:00
1:53 AM,18.0,15.1,88,30.36,10.0,West,4.6,-,N/A,,Mostly Cloudy,260,2013-01-03 07:53:00
2:53 AM,23.0,18.0,81,30.38,10.0,NW,12.7,-,N/A,,Overcast,320,2013-01-03 08:53:00
3:53 AM,21.0,16.0,81,30.39,10.0,NNW,10.4,-,N/A,,Partly Cloudy,330,2013-01-03 09:53:00
4:53 AM,21.9,16.0,78,30.41,10.0,NW,13.8,-,0.00,,Overcast,320,2013-01-03 10:53:00
5:53 AM,19.9,16.0,85,30.41,10.0,NW,9.2,-,N/A,,Overcast,310,2013-01-03 11:53:00
6:53 AM,17.1,12.9,84,30.45,10.0,West,5.8,-,N/A,,Clear,280,2013-01-03 12:53:00
7:32 AM,15.8,10.4,79,30.38,10.0,West,8.1,-,N/A,,Mostly Cloudy,260,2013-01-03 13:32:00
7:53 AM,16.0,12.0,84,30.48,10.0,West,5.8,-,N/A,,Overcast,260,2013-01-03 13:53:00
8:43 AM,19.4,15.8,86,30.39,10.0,West,5.8,-,N/A,,Overcast,280,2013-01-03 14:43:00
8:53 AM,19.9,15.1,81,30.49,10.0,West,6.9,-,N/A,,Overcast,270,2013-01-03 14:53:00
9:53 AM,23.0,17.1,78,30.51,10.0,West,5.8,-,N/A,,Overcast,270,2013-01-03 15:53:00
10:53 AM,28.0,19.9,72,30.52,10.0,NW,11.5,-,0.00,,Overcast,320,2013-01-03 16:53:00
11:53 AM,28.0,19.9,72,30.49,10.0,NW,9.2,-,0.00,,Overcast,310,2013-01-03 17:53:00
12:53 PM,30.0,21.0,69,30.45,10.0,NNW,4.6,-,0.00,,Mostly Cloudy,340,2013-01-03 18:53:00
1:53 PM,30.0,21.0,69,30.44,10.0,West,4.6,-,N/A,,Scattered Clouds,280,2013-01-03 19:53:00
2:53 PM,28.9,21.0,72,30.43,10.0,West,6.9,-,N/A,,Partly Cloudy,260,2013-01-03 20:53:00
3:53 PM,28.9,19.9,69,30.43,10.0,West,8.1,-,N/A,,Clear,260,2013-01-03 21:53:00
4:53 PM,26.1,19.0,75,30.44,10.0,WSW,4.6,-,N/A,,Clear,250,2013-01-03 22:53:00
6:53 PM,18.0,15.1,88,30.45,10.0,South,6.9,-,N/A,,Clear,190,2013-01-04 00:53:00
7:53 PM,15.1,12.0,88,30.45,10.0,SSW,9.2,-,N/A,,Clear,200,2013-01-04 01:53:00
8:53 PM,12.0,9.0,88,30.44,10.0,SSW,9.2,-,N/A,,Clear,200,2013-01-04 02:53:00
10:53 PM,10.0,7.0,87,30.43,10.0,South,9.2,-,N/A,,Clear,190,2013-01-04 04:53:00
11:53 PM,10.9,8.1,88,30.42,10.0,SSW,10.4,-,N/A,,Clear,200,2013-01-04 05:53:00